User: anonymous   Login
Location: *
(50.8512°N, 5.6907°E)
Time: 13:06:45
(UTC+00:00)
Language:

STARLINK-1228 - Orbit

View from above orbital plane
View from above orbital plane
View from above satellite
View from above satellite

Ground track
Ground track

The orbit data is extracted from the following two-line orbital elements,

1 45188U 20012L   20188.91667824 -.00024716 +00000-0 -16827-2 0  9991
2 45188 052.9943 307.2004 0001112 090.7436 276.7450 15.05588512001765
Epoch (UTC): 06 July 2020 22:00:01
Eccentricity: 0.0001112
inclination: 52.9943°
perigee height: 549 km
apogee height: 550 km
right ascension of ascending node: 307.2004°
argument of perigee: 90.7436°
revolutions per day: 15.05588512
mean anomaly at epoch: 276.7450°
orbit number at epoch: 176

The dashed part of the orbit path shows where the satellite is in the earth's shadow,  

DLR